NOAA NWS Hourly Roundups by Site

Regional Weather Roundup for Bismarck, ND

To Select Another Site Choose from List

Select Site:  

000
ASUS43 KBIS 151810
RWRBIS

NWR BROADCAST TEXT
NATIONAL WEATHER SERVICE BISMARCK ND
100 PM CDT WED AUG 15 2018

NOTE: "FAIR" INDICATES FEW OR NO CLOUDS BELOW 12,000 FEET WITH NO
SIGNIFICANT WEATHER AND/OR OBSTRUCTIONS TO VISIBILITY.


CITY           SKY/WX    TMP DP  RH WIND       PRES   REMARKS
WILLISTON      SUNNY     81  53  37 SE8       29.95F
MINOT          SUNNY     84  46  26 S12G18    29.94F
MINOT AFB      SUNNY     83  48  29 SW10G17   29.93F
BISMARCK       SUNNY     79  48  33 S9        29.99F
DICKINSON      SUNNY     78  52  40 SW9       29.97F
GARRISON         N/A     78  51  38 S10       29.97F
HETTINGER ARPT MOSUNNY   76  54  46 S7        30.00F
JAMESTOWN      SUNNY     75  51  43 NE5       30.00S
CARRINGTON     FAIR      79  50  36 VRB6G13   30.01S
HAZEN          FAIR      81  52  36 S13       29.98F
LINTON         FAIR      75  52  43 CALM      30.02S
MANDAN         FAIR      75  50  41 S10       30.00F
OAKES          FAIR      72  54  53 VRB5      30.02S
RUGBY          FAIR      79  52  38 S9        29.96S
STANLEY          N/A     79  50  36 S12G17    29.97S
TIOGA          FAIR      79  48  34 S12G17    29.98S
WATFORD CITY   FAIR      81  50  34 S9G16     29.94S
$$

CITY           SKY/WX    TMP DP  RH WIND       PRES   REMARKS
GRAND FORKS    FAIR      78  51  38 N5        29.96F
GRAND FORKS AF FAIR      78  49  34 W3        29.97F
DEVILS LAKE    FAIR      76  51  41 SW8       29.99F
FARGO          FAIR      74  50  42 E6        29.99S
CANDO          FAIR      81  50  34 SW10      29.98F
CAVALIER       FAIR      81  52  36 S7        29.93F
GRAFTON        FAIR      79  52  38 VRB5      29.97F
GWINNER        CLEAR     72  54  53 CALM      30.01S
LANGDON        FAIR      81  52  36 SW12G17   29.97F
ROLLA          FAIR      75  55  50 SW9G16    29.97F
WALHALLA       FAIR      81  52  36 SW9       29.93F
$$

CITY           SKY/WX    TMP DP  RH WIND       PRES   REMARKS
ABERDEEN       SUNNY     75  55  49 E6        29.99F
MOBRIDGE       MOSUNNY   80  52  37 SE10      29.97F
BUFFALO          N/A     76  53  44 SE6       29.98F
RAPID CITY     MOSUNNY   70  57  63 CALM      30.04R
GLASGOW        SUNNY     85  50  29 S8        29.91F
SIDNEY         SUNNY     78  56  46 VRB5      29.94F
WOLF POINT     SUNNY     83  54  36 VRB5      29.92
MILES CITY     SUNNY     78  56  46 CALM      29.96F
BAKER          SUNNY     80  53  39 W12       29.98F
$$

CITY           SKY/WX    TMP DP  RH WIND       PRES   REMARKS
BILLINGS       SUNNY     77  49  37 SW8       30.00F
GREAT FALLS    SUNNY     83  33  16 W8G20     29.98S
REGINA         SUNNY     84  48  28 W8        29.84F
ESTEVAN        SUNNY     82  50  32 SW14G23   29.92F
$$




 

View Past Reports for Bismarck, ND.

Products Courtesy of NOAA-NWS
NWS Information Parsing Script by Ken True at Saratoga Weather - Script by SE Lincoln Weather.